Kalamazoo, MI

11:40 AM EST on February 27, 2017 (GMT -0500)
Kalamazoo-Battle Creek International

Weather History for KAZO - June, 2013

Change the Weather History Date:

Saturday, June 29, 2013

  Actual Average Record
Temperature  
Mean Temperature 69 °F 72 °F  
Max Temperature 77 °F 83 °F 98 °F (1971)
Min Temperature 61 °F 61 °F 49 °F (2016)
Degree Days  
Heating Degree Days 0 0  
Month to date heating degree days 39 47  
Since 1 June heating degree days 39 47  
Since 1 July heating degree days 6311 6415  
Cooling Degree Days 4 7  
Month to date cooling degree days 142 138  
Year to date cooling degree days 222 179  
Since 1 June cooling degree days 142 138  
Growing Degree Days 18 (Base 50)    
Moisture  
Dew Point 60 °F    
Average Humidity 77    
Maximum Humidity 93    
Minimum Humidity 60    
Precipitation  
Precipitation 0.00 in 0.09 in 0.85 in (1948)
Month to date precipitation 6.04 3.49  
Year to date precipitation 21.10 15.93  
Sea Level Pressure  
Sea Level Pressure 29.63 in    
Wind  
Wind Speed 5 mph (NNE)    
Max Wind Speed 13 mph    
Max Gust Speed 20 mph    
Visibility 9 miles    
Events      
T = Trace of Precipitation, MM = Missing Value Source: NWS Daily Summary

Daily Weather History Graph

Daily Weather History Graph

Search for Another Location

Airport or City:

Trip Planner

Search our weather history database for the weather conditions in past years. The results will help you decide how hot, cold, wet, or windy it might be!

Date:

Astronomy

Jun. 29, 2013 Rise Set
Actual Time 6:08 AM EDT 9:22 PM EDT
Civil Twilight 5:34 AM EDT 9:57 PM EDT
Nautical Twilight 4:49 AM EDT 10:41 PM EDT
Astronomical Twilight 3:55 AM EDT 11:35 PM EDT
Moon 12:43 AM EDT (6/29) 1:28 PM EDT (6/29)
Length of Visible Light 16h 22m
Length of Day
15h 13m
Waning Gibbous, 56% of the Moon is Illuminated
Jun 29
Waning Gibbous
Jun 30
Last Quarter
Jul 8
New
Jul 15
First Quarter
Jul 22
Full

Hourly Weather History & Observations

Time (EDT) Temp. Dew Point Humidity Pressure Visibility Wind Dir Wind Speed Gust Speed Precip Events Conditions
12:53 AM 66.0 °F 61.0 °F 84% 29.59 in 10.0 mi WNW 4.6 mph - N/A   Overcast
1:53 AM 64.9 °F 61.0 °F 87% 29.58 in 10.0 mi WNW 3.5 mph - N/A   Clear
2:53 AM 63.0 °F 60.1 °F 90% 29.58 in 10.0 mi Calm Calm - N/A   Mostly Cloudy
3:53 AM 62.1 °F 59.0 °F 90% 29.57 in 10.0 mi North 3.5 mph - N/A   Clear
4:53 AM 63.0 °F 60.1 °F 90% 29.57 in 10.0 mi North 3.5 mph - N/A   Clear
5:46 AM 62.6 °F 59.0 °F 88% 29.60 in 9.0 mi Calm Calm - N/A   Scattered Clouds
5:53 AM 63.0 °F 60.1 °F 90% 29.59 in 10.0 mi Calm Calm - N/A   Mostly Cloudy
6:17 AM 64.4 °F 60.8 °F 88% 29.60 in 2.5 mi NNE 3.5 mph - N/A   Overcast
6:26 AM 64.4 °F 60.8 °F 88% 29.60 in 2.0 mi Variable 3.5 mph - N/A   Overcast
6:53 AM 64.0 °F 61.0 °F 90% 29.60 in 3.0 mi NNE 5.8 mph - N/A   Overcast
7:53 AM 64.9 °F 61.0 °F 87% 29.61 in 7.0 mi Calm Calm - N/A   Overcast
8:53 AM 66.9 °F 61.0 °F 81% 29.61 in 7.0 mi Calm Calm - N/A   Overcast
9:40 AM 68.0 °F 60.8 °F 78% 29.62 in 10.0 mi NE 3.5 mph - N/A   Overcast
9:53 AM 69.1 °F 61.0 °F 75% 29.62 in 10.0 mi Variable 3.5 mph - N/A   Overcast
10:53 AM 73.0 °F 60.1 °F 64% 29.62 in 10.0 mi NE 4.6 mph - N/A   Mostly Cloudy
11:53 AM 72.0 °F 60.1 °F 66% 29.62 in 10.0 mi NNE 6.9 mph - N/A   Mostly Cloudy
12:53 PM 73.0 °F 59.0 °F 61% 29.62 in 10.0 mi Variable 5.8 mph - N/A   Mostly Cloudy
1:53 PM 75.0 °F 60.1 °F 60% 29.62 in 10.0 mi NE 8.1 mph - N/A   Mostly Cloudy
2:53 PM 75.0 °F 61.0 °F 62% 29.62 in 10.0 mi Variable 5.8 mph - N/A   Overcast
3:03 PM 75.2 °F 60.8 °F 61% 29.63 in 10.0 mi NE 6.9 mph - N/A   Overcast
3:53 PM 75.9 °F 61.0 °F 60% 29.62 in 10.0 mi ENE 6.9 mph - N/A   Mostly Cloudy
4:53 PM 73.9 °F 60.1 °F 62% 29.64 in 10.0 mi ENE 8.1 mph - N/A   Overcast
5:53 PM 73.0 °F 61.0 °F 66% 29.65 in 10.0 mi NE 10.4 mph 16.1 mph N/A   Mostly Cloudy
6:53 PM 73.0 °F 60.1 °F 64% 29.66 in 10.0 mi NE 6.9 mph - N/A   Partly Cloudy
7:53 PM 70.0 °F 59.0 °F 68% 29.69 in 10.0 mi NE 8.1 mph - N/A   Overcast
8:53 PM 69.1 °F 59.0 °F 70% 29.71 in 10.0 mi NE 5.8 mph - N/A   Mostly Cloudy
9:53 PM 68.0 °F 59.0 °F 73% 29.72 in 10.0 mi NE 5.8 mph - N/A   Overcast
10:53 PM 66.9 °F 57.9 °F 73% 29.74 in 10.0 mi NE 3.5 mph - N/A   Mostly Cloudy
11:53 PM 66.9 °F 57.9 °F 73% 29.75 in 10.0 mi NE 4.6 mph - N/A   Overcast